Regional Weather Roundup
Issued by NWS Goodland, KS

Home | Current Version | Previous Version | Text Only | Print | Product List | Glossary Off
Versions: 1 2 3 4 5 6 7 8 9 10 11 12 13 14 15 16 17 18 19 20 21 22 23 24 25 26 27 28 29 30 31 32 33 34 35 36 37 38 39 40 41 42 43 44 45 46 47 48 49 50

000
ASUS43 KGLD 260459
RWRGLD

GOODLAND FORECAST AREA HOURLY WEATHER ROUNDUP
NATIONAL WEATHER SERVICE GOODLAND KS
1100 PM MDT THU MAY 25 2017

...OFFICIAL OBSERVATIONS...

CITY           SKY/WX    TMP DP  RH WIND       PRES   REMARKS
GOODLAND KS    CLEAR     56  51  84 N14       29.75R
HILL CITY KS   CLOUDY    61  57  87 NE3       29.62S
IMPERIAL NEB   LGT RAIN  59  52  77 W14       29.77R
MCCOOK NEB     CLOUDY    59  54  83 NW12      29.70R
AKRON CO       CLOUDY    51  45  79 E8        29.77F
BURLINGTON CO  CLEAR     56  50  80 N10       29.80R
LIMON CO       CLEAR     50  45  83 SW5       29.88R
$$

...UNOFFICIAL OBSERVATIONS...

CITY           SKY/WX    TMP DP  RH WIND       PRES   REMARKS
LENORA KS        N/A     57  32  39 MISG        N/A
NORTON KS      CLEAR     59  52  77 CALM      29.64R
SHARON SPRINGS   N/A     59  51  74 CALM        N/A
TRENTON NEB      N/A     57  32  39 NW8         N/A
KIT CARSON CO    N/A     57  47  69 MISG        N/A
YUMA CO        CLOUDY    52  46  82 N5        29.75F
$$




USA.gov is the U.S. government's official web portal to all federal, state and local government web resources and services.